[[{"header":{"parameterUnit":"m.s-1","parameterCategory":1,"la1":30.2991,"la2":30.254,"lo1":-89.0895,"lo2":-89.0444,"dy":0.0017,"dx":0.0017,"nx":28,"ny":28,"refTime":"2024-06-28T21:00:00:Z","depth":0,"parameterNumber":2,"parameterNumberName":"U-component_of_WINDS"},"data":[0,0,0,0,0,0,0,0,0,0,0,0,0,0,0,0,0,0,0,0,0,0,0,0,0,0,0,0,0,0,0,0,0,0,0,0,0,0,0,0,0,0,0,0,0,0,0,0,0,0,0,0,0,0,0,0,0,0,2.3236,2.3236,0,2.3217,2.3216,2.3216,2.3154,2.3152,2.3151,2.315,2.3131,2.3132,2.3133,0,0,0,0,0,0,0,0,0,0,0,0,0,2.3221,2.3221,2.3236,2.3236,2.3236,2.3217,2.3216,2.3216,2.3154,2.3152,2.3151,2.3149,2.3131,2.3132,2.3133,0,0,0,0,0,0,0,0,0,0,0,0,0,2.3217,2.3222,2.3236,2.3202,2.3199,2.3217,2.3216,2.3216,2.3154,2.3152,2.315,2.3148,2.3131,2.3132,2.3133,2.3183,0,0,2.3137,2.3138,0,0,0,0,0,0,0,0,2.3217,2.3218,2.3207,2.3205,2.3201,2.3185,2.3204,2.3205,2.3155,2.3171,2.315,2.3147,2.3151,2.3151,2.3152,2.3182,2.3181,2.3137,2.3138,2.3138,2.3139,0,0,0,0,0,0,0,2.3218,2.3218,2.3228,2.3207,2.3203,2.3188,2.3186,2.3204,2.3173,2.317,2.3165,2.3164,2.3149,2.3151,2.3151,2.3181,2.3137,2.3138,2.3139,2.3139,2.325,2.3253,0,0,0,0,0,0,2.3223,2.3219,2.3229,2.3228,2.3204,2.319,2.3187,2.3193,2.3173,2.3168,2.3165,2.3161,2.315,2.3149,2.315,2.3206,2.3138,2.3139,2.314,2.3248,2.3251,2.3253,0,0,0,0,0,0,2.3223,2.3224,2.323,2.3222,2.3222,2.3193,2.3199,2.3193,2.3195,2.317,2.3164,2.3173,2.3148,2.3148,2.3175,2.3205,2.314,2.3141,2.3246,2.3249,2.3252,2.3319,0,0,0,0,0,0,2.3222,2.3224,2.3243,2.3223,2.3222,2.3255,2.3201,2.3194,2.3197,2.319,2.3175,2.317,2.3146,2.3173,2.3176,2.3205,2.3142,2.3243,2.3247,2.3251,2.3314,2.3325,2.3333,0,0,0,0,0,2.3222,2.3263,2.3244,2.3245,2.3244,2.3257,2.3256,2.3227,2.3199,2.3218,2.3201,2.3171,2.3201,2.3177,2.3179,2.3209,2.3241,2.3246,2.3251,2.331,2.3323,2.3333,0,0,0,0,0,0,2.3287,2.326,2.3238,2.3274,2.3268,2.3246,2.3268,2.3242,2.3244,2.3238,2.3203,2.32,2.3231,2.3223,2.3196,2.3256,2.3216,2.3222,2.326,2.3272,2.3281,2.3282,2.3143,0,0,0,0,0,2.3306,2.3318,2.3293,2.3327,2.3325,2.3297,2.3301,2.328,2.3272,2.327,2.3256,2.325,2.3258,2.3265,2.3271,2.3313,2.3309,2.3335,2.3344,2.3352,2.3358,2.3379,2.339,2.327,2.327,2.327,0,0,2.3344,2.3331,2.334,2.3339,2.3332,2.3346,2.3296,2.3312,2.3322,2.3272,2.3296,2.3286,2.3278,2.3312,2.3327,2.3306,2.339,2.3359,2.3365,2.3366,2.3385,2.3397,2.3407,2.3273,2.3272,2.3272,0,0,2.3421,2.3412,2.3439,2.3432,2.3422,2.3403,2.341,2.3392,2.3383,2.3406,2.337,2.3381,2.3396,2.3392,2.3391,2.3467,2.3438,2.347,2.3519,2.354,2.355,2.3558,2.3585,2.3595,2.3475,2.3475,2.3475,0,2.347,2.3488,2.3456,2.3474,2.3475,2.3431,2.3458,2.3454,2.3447,2.3448,2.3425,2.3443,2.3434,2.3467,2.3485,2.3487,2.3493,2.3471,2.3551,2.3559,2.3566,2.3591,2.3601,2.3479,2.3479,2.3478,2.3478,0,2.3549,2.3562,2.3585,2.3578,2.3582,2.3605,2.3576,2.3584,2.3562,2.3546,2.3571,2.3559,2.3561,2.3568,2.3547,2.3598,2.3585,2.3557,2.3516,2.3582,2.3605,2.3614,2.3485,2.3483,2.3482,2.3481,0,0,2.3666,2.3641,2.365,2.3646,2.3631,2.3641,2.3662,2.3664,2.3671,2.3668,2.3685,2.3699,2.3673,2.3672,2.3651,2.3669,2.3729,2.3639,2.3638,2.3656,2.3784,2.3805,2.3816,2.3711,2.3712,2.3714,2.3785,0,2.3738,2.3772,2.3743,2.3782,2.3794,2.3752,2.3771,2.3764,2.375,2.3758,2.3743,2.3753,2.3718,2.3717,2.3734,2.3718,2.3755,2.3713,2.3726,2.3727,2.3729,2.3828,2.385,2.3918,2.3794,2.3795,2.3796,0,2.3827,2.3826,2.3867,2.3849,2.3853,2.387,2.3869,2.3878,2.387,2.3858,2.3858,2.3831,2.3851,2.3811,2.3838,2.381,2.3814,2.3808,2.3809,2.3809,2.3765,2.383,2.3939,2.3949,2.381,2.3809,2.3808,0,2.3907,2.3917,2.3942,2.394,2.3921,2.3934,2.3926,2.3916,2.3919,2.3919,2.392,2.3923,2.3925,2.3928,2.3903,2.3876,2.3933,2.3891,2.3924,2.3925,2.3937,2.3937,2.4047,2.3941,2.3941,2.3941,2.394,0,2.399,2.4017,2.3978,2.3993,2.4021,2.3989,2.4018,2.4006,2.3998,2.401,2.3975,2.3988,2.3954,2.3963,2.3944,2.3969,2.397,2.3962,2.3956,2.3964,2.3965,2.3966,2.396,2.3943,2.3943,2.3942,2.3942,0,2.4085,2.406,2.4085,2.4064,2.4059,2.4081,2.4063,2.4077,2.4061,2.4077,2.4079,2.4054,2.4063,2.4038,2.4044,2.4031,2.4067,2.4054,2.407,2.4065,2.4099,2.4096,2.4214,2.4227,2.4113,2.4114,2.4115,0,2.4139,2.4158,2.4139,2.4145,2.4139,2.4149,2.4151,2.4121,2.4125,2.4117,2.4132,2.4138,2.4142,2.4159,2.4141,2.4145,2.4132,2.4173,2.4132,2.414,2.4132,2.4131,2.4132,2.4181,2.4182,2.4184,2.4185,0,2.4238,2.4225,2.423,2.423,2.4235,2.4234,2.4231,2.4238,2.4205,2.4212,2.422,2.4223,2.4229,2.4236,2.4236,2.4229,2.4202,2.4198,2.4205,2.4213,2.4221,2.4217,2.4092,2.4195,2.4194,2.4193,2.4192,2.4192,2.4313,2.4328,2.4317,2.4324,2.4318,2.4316,2.4327,2.4312,2.4319,2.432,2.4302,2.4315,2.4306,2.4304,2.43,2.431,2.4291,2.4302,2.4305,2.4308,2.4313,2.422,2.431,2.4309,2.4309,2.4309,2.4309,0,2.441,2.44,2.4407,2.4403,2.4409,2.4382,2.4377,2.4384,2.4395,2.4389,2.4393,2.4403,2.441,2.4392,2.4396,2.4408,2.4395,2.441,2.4408,2.4407,2.433,2.4323,2.442,2.442,2.442,2.442,2.4419,2.4419,2.446,2.4483,2.4469,2.4489,2.448,2.4491,2.4491,2.4489,2.4484,2.4497,2.4501,2.449,2.448,2.4483,2.4488,2.4482,2.4485,2.4504,2.4495,2.4423,2.4412,2.4402,2.4395,2.4505,2.4505,2.457,2.4571,2.4571]},{"header":{"parameterUnit":"m.s-1","parameterCategory":1,"la1":30.2991,"la2":30.254,"lo1":-89.0895,"lo2":-89.0444,"dy":0.0017,"dx":0.0017,"nx":28,"ny":28,"refTime":"2024-06-28T21:00:00:Z","depth":0,"parameterNumber":3,"parameterNumberName":"V-component_of_WINDS"},"data":[0,0,0,0,0,0,0,0,0,0,0,0,0,0,0,0,0,0,0,0,0,0,0,0,0,0,0,0,0,0,0,0,0,0,0,0,0,0,0,0,0,0,0,0,0,0,0,0,0,0,0,0,0,0,0,0,0,0,4.0274,4.0277,0,4.0504,4.0507,4.0509,4.0532,4.053,4.0528,4.0525,4.0753,4.0761,4.0769,0,0,0,0,0,0,0,0,0,0,0,0,0,3.9845,3.9853,4.0274,4.0277,4.028,4.0504,4.0507,4.051,4.0533,4.053,4.0527,4.0524,4.075,4.076,4.077,0,0,0,0,0,0,0,0,0,0,0,0,0,4.0048,3.9855,4.0273,4.0318,4.0325,4.0503,4.0507,4.0511,4.0533,4.053,4.0526,4.0523,4.0747,4.0759,4.0771,4.0918,0,0,4.0809,4.0814,0,0,0,0,0,0,0,0,4.0037,4.0064,4.0309,4.0316,4.0323,4.0486,4.0439,4.0647,4.0534,4.0454,4.0525,4.0521,4.0666,4.0685,4.0736,4.0929,4.0939,4.081,4.0818,4.0823,4.0827,0,0,0,0,0,0,0,4.0023,4.0054,4.0365,4.0312,4.0321,4.0324,4.0349,4.0479,4.0577,4.0461,4.0463,4.049,4.067,4.0724,4.0741,4.0942,4.081,4.0821,4.0829,4.0833,4.1265,4.1268,0,0,0,0,0,0,4.0001,4.0042,4.0357,4.0372,4.0169,4.0334,4.0362,4.0437,4.0576,4.0594,4.0493,4.049,4.0705,4.0727,4.0749,4.0931,4.0823,4.0835,4.0842,4.1261,4.1265,4.127,0,0,0,0,0,0,3.9992,4.0029,4.0348,4.0208,4.0249,4.0346,4.0429,4.0443,4.0498,4.06,4.0617,4.0531,4.0703,4.0732,4.0876,4.0939,4.084,4.0851,4.1256,4.1262,4.1268,4.1294,0,0,0,0,0,0,3.998,4.0026,4.0086,4.0209,4.0256,4.0474,4.0433,4.0451,4.052,4.0519,4.0641,4.0657,4.0702,4.0858,4.0889,4.0954,4.0861,4.1251,4.1259,4.1266,4.1288,4.13,4.131,0,0,0,0,0,3.9964,4.0082,4.0089,4.0126,4.0333,4.0478,4.0505,4.0556,4.0525,4.0584,4.0649,4.0653,4.0926,4.0872,4.0907,4.0977,4.1247,4.1256,4.1265,4.1283,4.1297,4.131,0,0,0,0,0,0,3.9962,4.01,4.0108,4.027,4.0362,4.0482,4.0558,4.0571,4.0672,4.0666,4.0723,4.075,4.0892,4.0948,4.0886,4.1125,4.1083,4.1099,4.1084,4.1099,4.111,4.1094,4.0871,0,0,0,0,0,3.998,4.0089,4.0202,4.0334,4.038,4.0461,4.0526,4.0558,4.0655,4.0693,4.0769,4.086,4.0967,4.1035,4.1139,4.1295,4.132,4.1359,4.1371,4.1379,4.1393,4.1478,4.1497,4.13,4.13,4.1299,0,0,4.0019,4.0108,4.0173,4.0336,4.0411,4.052,4.0494,4.061,4.0691,4.071,4.0852,4.091,4.1015,4.1166,4.1236,4.1217,4.1453,4.1391,4.1397,4.1407,4.1489,4.1508,4.1524,4.1306,4.1305,4.1304,0,0,4.0147,4.0225,4.0343,4.0419,4.0534,4.0587,4.0614,4.0732,4.0772,4.0915,4.0931,4.1025,4.1208,4.1282,4.1344,4.1495,4.1502,4.1526,4.1586,4.1668,4.1683,4.1697,4.1751,4.177,4.1539,4.154,4.154,0,4.018,4.0348,4.0402,4.0519,4.0589,4.0612,4.073,4.08,4.0941,4.0988,4.0965,4.1194,4.1266,4.1433,4.147,4.1519,4.1551,4.1514,4.1677,4.1692,4.1706,4.1757,4.1777,4.1542,4.1542,4.1541,4.1541,0,4.0383,4.0499,4.058,4.0718,4.0797,4.0913,4.0982,4.1054,4.1077,4.1131,4.1274,4.1362,4.1483,4.1524,4.1548,4.1694,4.1679,4.1666,4.1625,4.1726,4.1776,4.1796,4.1545,4.1544,4.1544,4.1543,0,0,4.0519,4.0684,4.0713,4.0775,4.0902,4.0991,4.1106,4.1227,4.1287,4.1382,4.1479,4.1631,4.162,4.1689,4.172,4.1792,4.1905,4.177,4.1773,4.1793,4.2071,4.2081,4.2103,4.1909,4.1913,4.1917,4.2062,0,4.0661,4.0872,4.0922,4.1101,4.1207,4.1229,4.1329,4.1415,4.1467,4.1562,4.1617,4.1725,4.1701,4.1743,4.1815,4.1877,4.1962,4.1866,4.1999,4.2003,4.1974,4.2129,4.2141,4.2274,4.2082,4.2085,4.2087,0,4.0857,4.0959,4.1149,4.126,4.1306,4.1396,4.1509,4.16,4.1697,4.1729,4.1806,4.1829,4.1946,4.1897,4.2058,4.1992,4.2048,4.2086,4.2092,4.2108,4.2053,4.215,4.2318,4.2338,4.2118,4.2116,4.2114,0,4.0937,4.1121,4.1259,4.1311,4.1444,4.1506,4.1564,4.1657,4.1726,4.1823,4.1867,4.1975,4.2035,4.2116,4.2167,4.2127,4.2323,4.2279,4.2352,4.2351,4.2394,4.2391,4.2575,4.2428,4.2428,4.2427,4.2427,0,4.1092,4.1207,4.1296,4.1381,4.151,4.1564,4.1688,4.1745,4.1828,4.1922,4.1945,4.2031,4.2092,4.2186,4.2225,4.2352,4.2378,4.2406,4.2415,4.2405,4.2402,4.2444,4.2437,4.2433,4.2432,4.243,4.243,0,4.1205,4.1269,4.1421,4.1533,4.1564,4.1654,4.1749,4.183,4.1881,4.1999,4.2029,4.2109,4.222,4.2278,4.2417,4.2443,4.2585,4.2589,4.2554,4.2558,4.2628,4.2621,4.2847,4.2879,4.2709,4.2711,4.2712,0,4.13,4.139,4.1513,4.1578,4.1638,4.1743,4.1813,4.1867,4.1938,4.2054,4.212,4.2233,4.2327,4.2504,4.2572,4.2677,4.2683,4.2755,4.2699,4.2685,4.2685,4.268,4.2688,4.2765,4.2767,4.2768,4.2769,0,4.1463,4.149,4.1592,4.1704,4.1788,4.1878,4.1967,4.2018,4.2086,4.2164,4.228,4.2352,4.2494,4.2605,4.2715,4.277,4.2781,4.2786,4.2808,4.28,4.2776,4.279,4.2582,4.2781,4.278,4.2779,4.2778,4.2778,4.1571,4.1651,4.175,4.1862,4.1934,4.2016,4.2098,4.2159,4.2257,4.2379,4.2403,4.2525,4.2615,4.2765,4.2823,4.2917,4.2901,4.2934,4.2943,4.295,4.2954,4.276,4.2936,4.2936,4.2936,4.2936,4.2935,0,4.1736,4.18,4.1902,4.2026,4.2113,4.2116,4.2213,4.2285,4.2393,4.2478,4.257,4.2701,4.2808,4.2883,4.2992,4.3052,4.3059,4.3078,4.3075,4.3088,4.2961,4.2931,4.3071,4.3071,4.3071,4.3071,4.3071,4.3071,4.1832,4.1968,4.2005,4.2176,4.2238,4.236,4.2415,4.2489,4.2557,4.2704,4.2794,4.2843,4.2923,4.3037,4.3134,4.3153,4.3191,4.3211,4.323,4.3111,4.3097,4.3083,4.3055,4.3219,4.3219,4.3349,4.335,4.3351]}]]